Details From MUVR - Juan Gualberto Gomez Intl
To MUHA - La Havane Jose Marti Intl
Flight Number -
Tags Generated
Created
Modified
Stats Distance 54 nm / 100 km
Max Altitude 0 ft / 0 m
Waypoints 2
Social Downloads 3
Likes 0
Share VATSIM

Download

Looking for another format? Having issues loading an existing format? Contact us
Advertisement - Login to hide

Notes

Generated

Route

MUVR MUHA

ID Type Via Altitude Latitude Longitude Leg Dist Tot Dist Heading (true) Name
O MUVR APT - 0 ft / 0 m 23.02551˚ -81.44937˚ - 0 nm - -
O MUHA APT - 0 ft / 0 m 22.97863˚ -82.42494˚ 54 nm 54 nm 267° / 267° -

Altitude Profile

Advertisement - Login to hide

MUVR

Details ICAO MUVR (VRA)
Name JUAN GUALBERTO GOMEZ INTL
Region Cuba
Timezone America/Havana (UTC-5.0)
Stats Elevation 209 ft / 64 m (AMSL)
Location 23.034439° -81.435269°
Runways 1
Magnetic Variation 5.518° W

METAR

MUVR 160851Z 08005KT 9000 FEW025 21/20 Q1020

Decode

TAF

Not found

Departure Runways

ID Width Length Bearing (true) Bearing (mag) Surface Threshold Offset Overrun Length
06 148 ft / 45 m 11,494 ft / 3,503 m 55.47° 60.99° Asphalt 0 ft / 0 m 197 ft / 60 m
24 148 ft / 45 m 11,494 ft / 3,503 m 235.48° 241.00° Asphalt 0 ft / 0 m 197 ft / 60 m

MUHA

Details ICAO MUHA (HAV)
Name Havana Jose Marti Intl
Region Cuba
Timezone America/Havana (UTC-5.0)
Stats Elevation 209 ft / 64 m (AMSL)
Location 22.989154° -82.409086°
Runways 1
Magnetic Variation 4.909° W

METAR

MUHA 160855Z 09003KT 9000 NSC 21/20 Q1019

Decode

TAF

Not found

Destination Runways

ID Width Length Bearing (true) Bearing (mag) Surface Threshold Offset Overrun Length
06 148 ft / 45 m 13,133 ft / 4,003 m 54.21° 59.12° Asphalt 0 ft / 0 m 476 ft / 145 m
24 148 ft / 45 m 13,133 ft / 4,003 m 234.23° 239.14° Asphalt 0 ft / 0 m 197 ft / 60 m

Approach Navaids

Runway Type Ident Frequency Range Bearing (true) Bearing (mag) Slope Elevation
06 Localiser IHA 110.50 MHz 18 nm / 33 km 54.23° 59.14° - 209 ft / 64 m (AMSL)
06 Glidescope IHA 110.50 MHz 10 nm / 19 km 54.22° 59.13° 3.00° 209 ft / 64 m (AMSL)

Popular Alternatives